DW4771 Weather Reports


Display with metric or nautical units.
time (UTC)temp
F
wind
direction
speed
MPH
gust
MPH
rain 1hr
in
rain 24hr
in
rain mn
in
humidity
%
barometer
mb
20171023004538 49 320 6.0 11.0 0.00 0.48 0.00 85 1003.7
20171022235738 47 248 1.0 4.0 0.00 0.48 0.00 88 1004.1
20171022234138 47 248 1.0 3.0 0.00 0.48 0.00 88 1004.1
20171022232538 46 0 0.0 0.0 0.00 0.48 0.00 87 1004.3
20171022231738 46 0 0.0 0.0 0.00 0.48 0.00 87 1004.3
20171022230138 46 0 0.0 0.0 0.00 0.48 0.00 87 1004.4
20171022222938 46 0 0.0 0.0 0.00 0.48 0.00 87 1004.4
20171022222138 47 0 0.0 0.0 0.00 0.48 0.00 87 1004.5
20171022220538 47 0 0.0 0.0 0.00 0.48 0.00 87 1004.6
20171022215738 47 0 0.0 0.0 0.00 0.48 0.00 87 1004.6
20171022213338 47 0 0.0 0.0 0.00 0.48 0.48 87 1004.7
20171022212538 47 0 0.0 2.0 0.00 0.48 0.48 87 1004.7
20171022205338 47 0 0.0 0.0 0.00 0.48 0.48 87 1004.9
20171022204538 47 248 0.0 2.0 0.00 0.48 0.48 87 1004.9
20171022203738 47 250 1.0 3.0 0.00 0.48 0.48 87 1005.1
20171022202938 47 257 0.0 2.0 0.00 0.48 0.48 87 1005.1
20171022202138 47 0 0.0 0.0 0.00 0.48 0.48 87 1005.1
20171022201338 47 0 0.0 0.0 0.00 0.48 0.48 87 1005.0
20171022200538 47 0 0.0 0.0 0.00 0.48 0.48 87 1004.9
20171022194938 47 0 0.0 0.0 0.00 0.48 0.48 87 1005.0
20171022194138 48 0 0.0 2.0 0.00 0.48 0.48 87 1005.0
20171022193337 48 248 0.0 2.0 0.00 0.48 0.48 87 1005.0
20171022190137 49 265 0.0 2.0 0.00 0.48 0.48 87 1005.2
20171022184538 49 270 0.0 2.0 0.00 0.48 0.48 87 1005.0
20171022180537 50 1 0.0 2.0 0.00 0.48 0.48 87 1005.1
20171022175737 50 353 0.0 2.0 0.00 0.48 0.48 87 1005.2
20171022174137 51 0 0.0 0.0 0.00 0.48 0.48 87 1005.4
20171022173337 51 0 0.0 1.0 0.00 0.48 0.48 87 1005.3
20171022170937 51 181 0.0 4.0 0.00 0.48 0.48 86 1005.1
20171022162937 52 0 0.0 0.0 0.00 0.48 0.48 86 1005.2
20171022162137 52 181 0.0 2.0 0.00 0.48 0.48 86 1005.3
20171022161337 52 199 0.0 2.0 0.00 0.48 0.48 86 1005.3
20171022160538 53 0 0.0 2.0 0.00 0.48 0.48 86 1005.3
20171022154137 53 165 2.0 5.0 0.00 0.48 0.48 86 1005.3
20171022152537 53 122 1.0 4.0 0.00 0.48 0.48 85 1005.1
20171022150937 53 0 0.0 2.0 0.01 0.48 0.48 86 1005.2
20171022150137 54 0 0.0 2.0 0.01 0.48 0.48 85 1005.3
20171022144537 54 0 0.0 0.0 0.01 0.48 0.48 85 1005.5
20171022143737 54 0 0.0 0.0 0.01 0.48 0.48 86 1005.6
20171022142937 54 90 0.0 2.0 0.01 0.48 0.48 85 1005.5
20171022142137 54 75 1.0 3.0 0.02 0.48 0.48 85 1005.3
20171022140537 54 139 1.0 2.0 0.02 0.47 0.47 85 1005.3
20171022135737 54 0 0.0 2.0 0.02 0.47 0.47 85 1005.4
20171022130937 54 312 2.0 4.0 0.02 0.45 0.45 85 1005.8
20171022124537 54 314 3.0 6.0 0.02 0.45 0.45 85 1005.9
20171022123737 54 317 3.0 6.0 0.01 0.44 0.44 85 1005.9
20171022122937 54 314 3.0 5.0 0.02 0.44 0.44 85 1005.8
20171022122137 54 298 3.0 6.0 0.02 0.44 0.44 86 1005.9
20171022121337 54 312 3.0 7.0 0.02 0.44 0.44 86 1005.8
20171022115737 54 323 4.0 9.0 0.01 0.43 0.43 86 1005.9
20171022114137 54 3 5.0 11.0 0.01 0.43 0.43 86 1005.6
20171022113337 54 347 5.0 11.0 0.02 0.43 0.43 87 1005.4
20171022111738 54 350 5.0 11.0 0.04 0.41 0.41 87 1005.5
20171022103737 54 0 0.0 2.0 0.05 0.40 0.40 87 1005.7
20171022102937 54 294 0.0 2.0 0.05 0.39 0.40 87 1005.8
20171022101337 54 325 2.0 6.0 0.08 0.38 0.38 86 1005.8
20171022094937 54 310 2.0 6.0 0.12 0.35 0.35 86 1005.8
20171022092537 54 6 1.0 4.0 0.09 0.33 0.33 86 1005.8
20171022091737 54 351 0.0 3.0 0.08 0.31 0.31 86 1005.6
20171022090937 54 343 0.0 3.0 0.08 0.30 0.30 86 1005.6
20171022090137 54 270 0.0 2.0 0.08 0.27 0.27 86 1005.6
20171022083737 54 116 0.0 2.0 0.08 0.24 0.24 85 1005.4
20171022082937 53 79 1.0 3.0 0.11 0.24 0.24 85 1005.3
20171022082137 53 68 1.0 4.0 0.09 0.22 0.22 85 1005.2
20171022081337 53 87 2.0 4.0 0.08 0.21 0.21 85 1005.2
20171022080537 53 95 1.0 4.0 0.07 0.19 0.19 85 1005.3
20171022075737 53 0 0.0 2.0 0.07 0.19 0.19 85 1005.3
20171022074937 53 135 0.0 2.0 0.05 0.17 0.18 85 1005.2
20171022074137 53 135 0.0 2.0 0.05 0.15 0.15 85 1005.3
20171022072537 52 0 0.0 0.0 0.05 0.13 0.13 85 1005.3
20171022071737 52 0 0.0 2.0 0.08 0.13 0.13 85 1005.3
20171022070937 52 0 0.0 2.0 0.09 0.13 0.13 84 1005.3
20171022064537 51 0 0.0 2.0 0.11 0.11 0.11 84 1005.4
20171022063737 51 205 0.0 2.0 0.09 0.09 0.09 84 1005.4
20171022060537 51 0 0.0 2.0 0.00 0.00 0.00 84 1005.2
20171022055737 51 258 0.0 2.0 0.00 0.00 0.00 84 1005.1
20171022054937 51 135 0.0 2.0 0.00 0.00 0.00 85 1005.1
20171022053337 51 0 0.0 0.0 0.00 0.00 0.00 85 1005.0
20171022052537 51 0 0.0 1.0 0.00 0.00 0.00 84 1005.1
20171022050937 51 135 0.0 2.0 0.00 0.00 0.00 84 1004.9
20171022050137 51 0 0.0 1.0 0.00 0.00 0.00 84 1005.1
20171022044537 50 158 0.0 2.0 0.00 0.00 0.00 85 1005.1
20171022043737 50 170 0.0 2.0 0.00 0.00 0.00 85 1005.1
20171022042137 50 154 2.0 5.0 0.00 0.00 0.00 85 1005.3
20171022040537 49 149 2.0 5.0 0.00 0.00 0.00 84 1005.3
20171022034936 49 151 2.0 6.0 0.00 0.00 0.00 84 1005.3
20171022034137 49 156 3.0 8.0 0.00 0.00 0.00 85 1005.5
20171022032537 49 156 4.0 8.0 0.00 0.00 0.00 85 1005.3
20171022031737 49 159 3.0 8.0 0.00 0.00 0.00 85 1005.5
20171022030937 49 175 2.0 5.0 0.00 0.00 0.00 85 1005.5
20171022030136 49 145 1.0 5.0 0.00 0.00 0.00 85 1005.6
20171022023736 49 166 2.0 5.0 0.00 0.00 0.00 85 1005.8
20171022022936 49 149 1.0 3.0 0.00 0.00 0.00 85 1005.8
20171022015736 48 162 1.0 3.0 0.00 0.00 0.00 85 1006.2
20171022014936 48 74 1.0 4.0 0.00 0.00 0.00 85 1006.3
20171022010936 47 184 0.0 2.0 0.00 0.00 0.00 85 1006.7